OBJECT AC, 64554

Orbit data source: Space-Track

You're viewing an Uncataloged Satellite

Recently launched and/or uncataloged satellites may have evolving metadata. Metadata may include but not limited to: Owner, Maufacturer, Bus, Motor, and Mission.

OBJECT AC, 64554 is a satellite in SSO that was launched on Mon, 23 Jun 2025 UTC via an FALCON 9 launch vehicle from the Air Force Western Test Range (AFWTR). Unknown objects in Earth's orbit typically refer to objects detected orbiting the Earth but have not yet been identified or cataloged. These objects could be anything from previously untracked satellites, spent rocket stages, debris from satellite collisions, or even natural meteoroids temporarily captured by Earth's gravity.

Loading next visibility...
Identifier
64554, 2025-135AC
Orbit
SSO
Country
Flag of TBDTBD
Related business
None
Manufacturer
Unknown
Mission
Operational Commercial Imaging
Bus & Motor
Unknown
Mass
Unknown
Launch date (UTC)
2025-06-23 (11 months ago)
Launch vehicle
FALCON 9
Launch site
Air Force Western Test Range (AFWTR)
Object type
Unknown
Shape & HBR
Box, 0.1 m
Radar Cross Section
0.015 m², Small (<0.1 m²)

Expand to show TLE details & history
Last TLE update: 8 hours ago

TLE from 8 hours ago
0 OBJECT AC
1 64554U 25135AC  26133.24928152  .00010708  00000-0  37709-3 0  9993
2 64554  97.4597 250.2288 0002238  87.6971 272.4525 15.29487177 49660
Epoch: 2026-05-13T05:58Z
TLE epoch observation values (Epoch: 2026-05-13T05:58:57.923Z)
Latitude
-0.00005°
Longitude
-70.52455°
Altitude
480.381 km
Speed
7.625 km/s
True Right ascension
16h 40m 54s
True Declination
0° 00' 00"
Sunlit
Object was in full shadow at epoch
Visualization orbit readout
Latitude
Unknown
Longitude
Unknown
Altitude
Unknown
Speed
Unknown
Apparent Right ascension
Unknown
Apparent Declination
Unknown
Sunlit
N/A
Visualization observer readout
Local Sidereal Time
22:53:44
Azimuth
Unknown
Elevation
Unknown
Doppler factor
Unknown
Orbital elements
Apogee altitude
475.833 km
Perigee altitude
472.766 km
Semi-major axis
6,852.437 km
Eccentricity
0.00022
Inclination
97.4597°
RAAN
250.2288°
Arg. of periapsis
87.6971°
True anomaly
272.42688°
Mean anomaly
272.4525°
Eccentric anomaly
272.43969°
Mean motion
3.82627 °/min
Orbital period
94.09 mins
BSTAR
0.00037709
Loading maneuver chart data...
Computing Atmospheric mass density...
Loading historical data...
Loading historical data...
Loading historical data...
Loading historical data...
Loading historical data...
Loading historical data...
Loading historical data...

Documentation

Showing up to 5 results
|